Washington, GA

1:18 AM EDT on April 27, 2017 (GMT -0400)
Washington-Wilkes County

Weather History for KIIY - April, 2014

Change the Weather History Date:

Friday, April 25, 2014

  Actual Average (KDBN) Record (KDBN)
Temperature  
Mean Temperature 70 °F -  
Max Temperature 82 °F 80 °F 92 °F (1965)
Min Temperature 59 °F 50 °F 37 °F (1974)
Cooling Degree Days 6    
Growing Degree Days 20 (Base 50)    
Moisture  
Dew Point 57 °F    
Average Humidity 67    
Maximum Humidity 100    
Minimum Humidity 34    
Precipitation  
Precipitation 0.00 in - - ()
Sea Level Pressure  
Sea Level Pressure 29.88 in    
Wind  
Wind Speed 7 mph (SW)    
Max Wind Speed 21 mph    
Max Gust Speed 30 mph    
Visibility 9 miles    
Events Fog    
Averages and records for this station are not official NWS values.
T = Trace of Precipitation, MM = Missing Value Source: NWS Daily Summary

Daily Weather History Graph

Daily Weather History Graph

Search for Another Location

Airport or City:

Trip Planner

Search our weather history database for the weather conditions in past years. The results will help you decide how hot, cold, wet, or windy it might be!

Date:

Astronomy

Apr. 25, 2014 Rise Set
Actual Time 6:48 AM EDT 8:10 PM EDT
Civil Twilight 6:22 AM EDT 8:36 PM EDT
Nautical Twilight 5:51 AM EDT 9:07 PM EDT
Astronomical Twilight 5:18 AM EDT 9:40 PM EDT
Moon 4:24 AM EDT (4/25) 4:41 PM EDT (4/25)
Length of Visible Light 14h 13m
Length of Day
13h 21m
Waning Crescent, 15% of the Moon is Illuminated
Apr 25
Waning Crescent
Apr 29
New
May 6
First Quarter
May 14
Full
May 21
Last Quarter

Hourly Weather History & Observations

Time (EDT) Temp. Heat Index Dew Point Humidity Pressure Visibility Wind Dir Wind Speed Gust Speed Precip Events Conditions
12:15 AM 64.4 °F - 51.8 °F 64% 29.93 in 10.0 mi SSE 4.6 mph - N/A   Clear
12:35 AM 62.6 °F - 53.6 °F 72% 29.93 in 10.0 mi SSE 5.8 mph - N/A   Clear
12:55 AM 62.6 °F - 59.0 °F 88% 29.94 in 10.0 mi South 3.5 mph - N/A   Clear
1:15 AM 62.6 °F - 55.4 °F 77% 29.93 in 10.0 mi South 4.6 mph - N/A   Clear
1:35 AM 62.6 °F - 59.0 °F 88% 29.93 in 10.0 mi Calm Calm - N/A   Clear
1:55 AM 59.0 °F - 59.0 °F 100% 29.92 in 10.0 mi SSE 5.8 mph - N/A   Clear
2:15 AM 59.0 °F - 59.0 °F 100% 29.92 in 10.0 mi SSE 3.5 mph - N/A   Clear
2:35 AM 59.0 °F - 59.0 °F 100% 29.91 in 10.0 mi SE 3.5 mph - N/A   Clear
2:55 AM 59.0 °F - 59.0 °F 100% 29.91 in 7.0 mi SE 3.5 mph - N/A   Clear
3:15 AM 60.8 °F - 60.8 °F 100% 29.91 in 7.0 mi SSE 4.6 mph - N/A   Clear
3:35 AM 62.6 °F - 62.6 °F 100% 29.91 in 7.0 mi SSE 5.8 mph - N/A   Clear
3:55 AM 62.6 °F - 62.6 °F 100% 29.91 in 7.0 mi SSE 5.8 mph - N/A   Clear
4:15 AM 62.6 °F - 62.6 °F 100% 29.91 in 7.0 mi SSE 3.5 mph - N/A   Clear
4:35 AM 62.6 °F - 62.6 °F 100% 29.92 in 7.0 mi Calm Calm - N/A   Scattered Clouds
4:55 AM 62.6 °F - 62.6 °F 100% 29.90 in 5.0 mi South 3.5 mph - N/A   Scattered Clouds
5:15 AM 62.6 °F - 62.6 °F 100% 29.88 in 5.0 mi SSE 6.9 mph - N/A   Clear
5:35 AM 62.6 °F - 62.6 °F 100% 29.86 in 5.0 mi SSE 6.9 mph - N/A   Clear
5:55 AM 62.6 °F - - N/A% 29.86 in 4.0 mi SSE 5.8 mph - N/A   Haze
6:15 AM 60.8 °F - - N/A% 29.86 in 4.0 mi South 8.1 mph - N/A   Haze
6:35 AM 60.8 °F - - N/A% 29.87 in 3.0 mi South 5.8 mph - N/A   Overcast
6:55 AM 60.8 °F - - N/A% 29.88 in 3.0 mi SSE 4.6 mph - N/A   Overcast
7:15 AM 59.0 °F - - N/A% 29.88 in 0.5 mi SSE 4.6 mph - N/A Fog Fog
7:35 AM 60.8 °F - - N/A% 29.89 in 0.2 mi South 3.5 mph - N/A Fog Fog
7:55 AM 62.6 °F - - N/A% 29.89 in 1.0 mi South 4.6 mph - N/A   Overcast
8:15 AM 62.6 °F - - N/A% 29.90 in 2.0 mi South 4.6 mph - N/A   Overcast
8:35 AM 62.6 °F - - N/A% 29.91 in 4.0 mi SSW 5.8 mph - N/A   Haze
8:55 AM 64.4 °F - - N/A% 29.90 in 7.0 mi SSW 6.9 mph - N/A   Scattered Clouds
9:15 AM 66.2 °F - - N/A% 29.90 in 10.0 mi SSW 6.9 mph - N/A   Clear
9:35 AM 68.0 °F - 68.0 °F 100% 29.90 in 10.0 mi SW 8.1 mph - N/A   Clear
9:55 AM 69.8 °F - 64.4 °F 83% 29.89 in 10.0 mi SW 8.1 mph - N/A   Clear
10:10 AM 71.6 °F - 64.4 °F 78% 29.89 in 10.0 mi SW 6.9 mph - N/A   Clear
10:35 AM 71.6 °F - 62.6 °F 73% 29.90 in 10.0 mi SW 11.5 mph 21.9 mph N/A   Scattered Clouds
10:55 AM 71.6 °F - 62.6 °F 73% 29.90 in 10.0 mi WSW 11.5 mph 19.6 mph N/A   Mostly Cloudy
11:15 AM 69.8 °F - 64.4 °F 83% 29.90 in 10.0 mi West 9.2 mph 18.4 mph N/A   Overcast
11:35 AM 69.8 °F - 64.4 °F 83% 29.90 in 10.0 mi WSW 9.2 mph 16.1 mph N/A   Overcast
11:55 AM 68.0 °F - 62.6 °F 83% 29.90 in 10.0 mi West 9.2 mph 16.1 mph N/A   Overcast
12:15 PM 69.8 °F - 64.4 °F 83% 29.89 in 10.0 mi WSW 6.9 mph - N/A   Overcast
12:35 PM 71.6 °F - 66.2 °F 83% 29.88 in 10.0 mi SW 10.4 mph - N/A   Mostly Cloudy
12:55 PM 75.2 °F - 64.4 °F 69% 29.87 in 10.0 mi SSW 10.4 mph - N/A   Scattered Clouds
1:15 PM 75.2 °F - 64.4 °F 69% 29.86 in 10.0 mi SSW 6.9 mph - N/A   Scattered Clouds
1:35 PM 77.0 °F - 64.4 °F 65% 29.85 in 10.0 mi SSW 11.5 mph 18.4 mph N/A   Scattered Clouds
1:55 PM 78.8 °F - 64.4 °F 61% 29.84 in 10.0 mi WSW 11.5 mph 18.4 mph N/A   Clear
2:15 PM 80.6 °F 81.5 °F 60.8 °F 51% 29.83 in 10.0 mi West 15.0 mph 24.2 mph N/A   Clear
2:35 PM 80.6 °F 80.8 °F 57.2 °F 45% 29.83 in 10.0 mi West 13.8 mph 24.2 mph N/A   Clear
2:55 PM 82.4 °F 82.0 °F 57.2 °F 42% 29.83 in 10.0 mi West 16.1 mph 24.2 mph N/A   Clear
3:15 PM 82.4 °F 81.7 °F 55.4 °F 39% 29.82 in 10.0 mi West 16.1 mph 23.0 mph N/A   Clear
3:35 PM 82.4 °F 81.7 °F 55.4 °F 39% 29.82 in 10.0 mi West 18.4 mph 25.3 mph N/A   Clear
3:55 PM 80.6 °F 80.3 °F 53.6 °F 39% 29.82 in 10.0 mi West 13.8 mph 25.3 mph N/A   Clear
4:15 PM 82.4 °F - 51.8 °F 35% 29.82 in 10.0 mi West 18.4 mph 25.3 mph N/A   Clear
4:35 PM 82.4 °F - 51.8 °F 35% 29.82 in 10.0 mi West 13.8 mph 26.5 mph N/A   Clear
4:55 PM 82.4 °F - 51.8 °F 35% 29.82 in 10.0 mi WNW 20.7 mph 29.9 mph N/A   Clear
5:15 PM 82.4 °F - 51.8 °F 35% 29.83 in 10.0 mi West 16.1 mph 23.0 mph N/A   Clear
5:35 PM 80.6 °F - 50.0 °F 34% 29.83 in 10.0 mi WNW 12.7 mph 24.2 mph N/A   Clear
5:55 PM 80.6 °F - 50.0 °F 34% 29.83 in 10.0 mi West 16.1 mph 21.9 mph N/A   Clear
6:15 PM 80.6 °F - 50.0 °F 34% 29.83 in 10.0 mi West 12.7 mph 18.4 mph N/A   Clear
6:35 PM 80.6 °F - 50.0 °F 34% 29.83 in 10.0 mi West 12.7 mph 17.3 mph N/A   Clear
6:55 PM 80.6 °F - 50.0 °F 34% 29.84 in 10.0 mi WNW 10.4 mph 17.3 mph N/A   Clear
7:15 PM 80.6 °F - 50.0 °F 34% 29.84 in 10.0 mi West 8.1 mph - N/A   Clear
7:35 PM 78.8 °F - 51.8 °F 39% 29.84 in 10.0 mi West 4.6 mph - N/A   Clear
7:55 PM 75.2 °F - 53.6 °F 47% 29.84 in 10.0 mi WSW 3.5 mph - N/A   Clear
8:15 PM 71.6 °F - 55.4 °F 57% 29.85 in 10.0 mi WSW 4.6 mph - N/A   Clear
8:35 PM 69.8 °F - 55.4 °F 60% 29.85 in 10.0 mi West 5.8 mph - N/A   Clear
8:55 PM 68.0 °F - 53.6 °F 60% 29.86 in 10.0 mi WSW 4.6 mph - N/A   Clear
9:15 PM 66.2 °F - 53.6 °F 64% 29.88 in 10.0 mi WSW 5.8 mph - N/A   Clear
9:35 PM 68.0 °F - 53.6 °F 60% 29.88 in 10.0 mi West 8.1 mph - N/A   Clear
9:55 PM 68.0 °F - 53.6 °F 60% 29.89 in 10.0 mi West 6.9 mph - N/A   Clear
10:15 PM 68.0 °F - 53.6 °F 60% 29.90 in 10.0 mi West 6.9 mph - N/A   Clear
10:35 PM 68.0 °F - 53.6 °F 60% 29.91 in 10.0 mi West 10.4 mph - N/A   Clear
10:55 PM 68.0 °F - 51.8 °F 56% 29.92 in 10.0 mi West 8.1 mph - N/A   Clear
11:15 PM 68.0 °F - 51.8 °F 56% 29.92 in 10.0 mi West 5.8 mph - N/A   Clear
11:35 PM 68.0 °F - 51.8 °F 56% 29.92 in 10.0 mi WNW 6.9 mph - N/A   Clear
11:55 PM 66.2 °F - 51.8 °F 60% 29.92 in 10.0 mi NW 4.6 mph - N/A   Clear